• In Uzbekistan
  • List of Countries
  • For 7 days
  • Water Temperature
  • Satellite Maps
  • Weather Map
  • Weather Widgets
  • user-avatar
    Login

    Hourly Weather Caraguatatuba

    Today, 17 December, Sunday

    Time Temperature Precipitation Wind Pressure Humidity
    00:00 +25°C° 0 mm 3 mps 758 mmHg 89%
    01:00 +25°C° 0 mm 3 mps 758 mmHg 89%
    02:00 +25°C° 0 mm 3 mps 758 mmHg 88%
    03:00 +25°C° 0 mm 2 mps 758 mmHg 89%
    04:00 +25°C° 0 mm 2 mps 758 mmHg 88%
    05:00 +25°C° 0 mm 2 mps 758 mmHg 87%
    06:00 +25°C° 0 mm 2 mps 758 mmHg 86%
    07:00 +28°C° 0 mm 2 mps 758 mmHg 76%
    08:00 +31°C° 0 mm 2 mps 758 mmHg 66%
    09:00 +35°C° 0 mm 2 mps 759 mmHg 57%
    10:00 +36°C° 0.1 mm 2 mps 759 mmHg 52%
    11:00 +38°C° 0.1 mm 2 mps 759 mmHg 47%
    12:00 +40°C° 0.1 mm 3 mps 759 mmHg 43%
    13:00 +39°C° 0 mm 3 mps 758 mmHg 46%
    14:00 +38°C° 0 mm 3 mps 758 mmHg 49%
    15:00 +37°C° 0 mm 3 mps 758 mmHg 52%
    16:00 +36°C° 0.4 mm 3 mps 758 mmHg 60%
    17:00 +34°C° 0.4 mm 3 mps 758 mmHg 67%
    18:00 +33°C° 0.4 mm 3 mps 758 mmHg 74%
    19:00 +31°C° 0.1 mm 3 mps 758 mmHg 78%
    20:00 +29°C° 0.1 mm 3 mps 759 mmHg 81%
    21:00 +28°C° 0.1 mm 3 mps 759 mmHg 85%
    22:00 +27°C° 0.2 mm 3 mps 759 mmHg 86%
    23:00 +27°C° 0.2 mm 3 mps 759 mmHg 88%

    Tomorrow, 18 December, Monday

    Time Temperature Precipitation Wind Pressure Humidity
    00:00 +26°C° 0.2 mm 3 mps 759 mmHg 90%
    01:00 +26°C° 0 mm 3 mps 759 mmHg 90%
    02:00 +25°C° 0 mm 3 mps 758 mmHg 90%
    03:00 +25°C° 0 mm 3 mps 758 mmHg 89%
    04:00 +25°C° 0 mm 3 mps 758 mmHg 89%
    05:00 +26°C° 0 mm 2 mps 758 mmHg 89%
    06:00 +26°C° 0 mm 2 mps 759 mmHg 88%
    07:00 +29°C° 0 mm 2 mps 759 mmHg 77%
    08:00 +31°C° 0 mm 2 mps 760 mmHg 66%
    09:00 +35°C° 0 mm 3 mps 760 mmHg 55%
    10:00 +36°C° 0.4 mm 3 mps 760 mmHg 57%
    11:00 +36°C° 0.4 mm 3 mps 760 mmHg 58%
    12:00 +36°C° 0.4 mm 4 mps 760 mmHg 60%
    13:00 +36°C° 0.6 mm 4 mps 760 mmHg 63%
    14:00 +35°C° 0.6 mm 4 mps 760 mmHg 67%
    15:00 +34°C° 0.6 mm 4 mps 759 mmHg 70%
    16:00 +33°C° 0.6 mm 4 mps 759 mmHg 77%
    17:00 +30°C° 0.6 mm 3 mps 760 mmHg 83%
    18:00 +29°C° 0.6 mm 3 mps 760 mmHg 89%
    19:00 +28°C° 0.7 mm 3 mps 760 mmHg 91%
    20:00 +27°C° 0.7 mm 3 mps 761 mmHg 92%
    21:00 +27°C° 0.7 mm 2 mps 761 mmHg 94%
    22:00 +27°C° 0.3 mm 2 mps 761 mmHg 94%
    23:00 +26°C° 0.3 mm 2 mps 761 mmHg 95%

    Day after tomorrow, 19 December, Tuesday

    Time Temperature Precipitation Wind Pressure Humidity
    00:00 +26°C° 0.3 mm 2 mps 761 mmHg 96%
    01:00 +26°C° 0.3 mm 2 mps 761 mmHg 96%
    02:00 +26°C° 0.3 mm 2 mps 761 mmHg 96%
    03:00 +26°C° 0.3 mm 2 mps 761 mmHg 96%
    04:00 +26°C° 0.2 mm 2 mps 761 mmHg 96%
    05:00 +26°C° 0.2 mm 2 mps 761 mmHg 95%
    06:00 +26°C° 0.2 mm 2 mps 761 mmHg 95%
    07:00 +28°C° 0 mm 2 mps 762 mmHg 87%
    08:00 +30°C° 0 mm 2 mps 762 mmHg 79%
    09:00 +32°C° 0 mm 2 mps 762 mmHg 72%
    10:00 +34°C° 0.1 mm 2 mps 762 mmHg 70%
    11:00 +34°C° 0.1 mm 2 mps 762 mmHg 69%
    12:00 +35°C° 0.1 mm 3 mps 761 mmHg 68%
    13:00 +34°C° 0.7 mm 3 mps 761 mmHg 73%
    14:00 +33°C° 0.7 mm 3 mps 760 mmHg 78%
    15:00 +31°C° 0.7 mm 3 mps 759 mmHg 83%
    16:00 +30°C° 0.2 mm 2 mps 760 mmHg 87%
    17:00 +29°C° 0.2 mm 2 mps 760 mmHg 90%
    18:00 +28°C° 0.2 mm 1 mps 760 mmHg 93%
    19:00 +27°C° 0.1 mm 1 mps 760 mmHg 95%
    20:00 +27°C° 0.1 mm 1 mps 760 mmHg 96%
    21:00 +26°C° 0.1 mm 1 mps 761 mmHg 98%
    22:00 +26°C° 1.8 mm 1 mps 761 mmHg 98%
    23:00 +26°C° 1.8 mm 1 mps 760 mmHg 98%

    20 December, Wednesday

    Time Temperature Precipitation Wind Pressure Humidity
    00:00 +26°C° 1.8 mm 1 mps 760 mmHg 98%
    01:00 +26°C° 0 mm 1 mps 760 mmHg 98%
    02:00 +25°C° 0 mm 1 mps 759 mmHg 98%
    03:00 +25°C° 0 mm 1 mps 759 mmHg 98%
    04:00 +25°C° 0 mm 1 mps 759 mmHg 97%
    05:00 +26°C° 0 mm 1 mps 759 mmHg 96%
    06:00 +26°C° 0 mm 1 mps 760 mmHg 96%
    07:00 +28°C° 0 mm 1 mps 760 mmHg 87%
    08:00 +30°C° 0 mm 1 mps 760 mmHg 78%
    09:00 +32°C° 0 mm 1 mps 760 mmHg 69%
    10:00 +33°C° 0.7 mm 1 mps 759 mmHg 70%
    11:00 +34°C° 0.7 mm 2 mps 759 mmHg 70%
    12:00 +35°C° 0.7 mm 3 mps 758 mmHg 70%
    13:00 +34°C° 1.2 mm 3 mps 758 mmHg 74%
    14:00 +34°C° 1.2 mm 2 mps 757 mmHg 77%
    15:00 +32°C° 1.2 mm 2 mps 757 mmHg 81%
    16:00 +30°C° 1.1 mm 2 mps 757 mmHg 86%
    17:00 +29°C° 1.1 mm 2 mps 757 mmHg 90%
    18:00 +28°C° 1.1 mm 1 mps 757 mmHg 95%
    19:00 +27°C° 1.3 mm 1 mps 757 mmHg 95%
    20:00 +27°C° 1.3 mm 1 mps 758 mmHg 95%
    21:00 +27°C° 1.3 mm 1 mps 758 mmHg 95%
    22:00 +26°C° 0.4 mm 1 mps 758 mmHg 95%
    23:00 +26°C° 0.4 mm 1 mps 758 mmHg 95%

    21 December, Thursday

    Time Temperature Precipitation Wind Pressure Humidity
    00:00 +26°C° 0.4 mm 1 mps 758 mmHg 95%
    01:00 +26°C° 0.2 mm 1 mps 757 mmHg 95%
    02:00 +26°C° 0.2 mm 1 mps 756 mmHg 94%
    03:00 +26°C° 0.2 mm 1 mps 756 mmHg 94%
    04:00 +26°C° 0.4 mm 1 mps 756 mmHg 94%
    05:00 +26°C° 0.4 mm 1 mps 756 mmHg 94%
    06:00 +26°C° 0.4 mm 1 mps 756 mmHg 94%
    07:00 +26°C° 0.8 mm 1 mps 756 mmHg 92%
    08:00 +27°C° 0.8 mm 2 mps 757 mmHg 90%
    09:00 +27°C° 0.8 mm 2 mps 757 mmHg 89%
    10:00 +28°C° 0.7 mm 2 mps 757 mmHg 87%
    11:00 +29°C° 0.7 mm 2 mps 756 mmHg 86%
    12:00 +29°C° 0.7 mm 2 mps 756 mmHg 85%
    13:00 +29°C° 1.3 mm 2 mps 756 mmHg 87%
    14:00 +28°C° 1.3 mm 2 mps 756 mmHg 89%
    15:00 +28°C° 1.3 mm 2 mps 756 mmHg 90%
    16:00 +27°C° 1.9 mm 2 mps 756 mmHg 92%
    17:00 +27°C° 1.9 mm 2 mps 756 mmHg 93%
    18:00 +26°C° 1.9 mm 2 mps 756 mmHg 95%
    19:00 +26°C° 1.1 mm 2 mps 757 mmHg 95%
    20:00 +26°C° 1.1 mm 3 mps 757 mmHg 96%
    21:00 +26°C° 1.1 mm 3 mps 757 mmHg 96%
    22:00 +25°C° 1.2 mm 3 mps 757 mmHg 96%
    23:00 +25°C° 1.2 mm 3 mps 757 mmHg 96%

    22 December, Friday

    Time Temperature Precipitation Wind Pressure Humidity
    00:00 +25°C° 1.2 mm 3 mps 756 mmHg 96%
    01:00 +25°C° 0.7 mm 3 mps 756 mmHg 96%
    02:00 +25°C° 0.7 mm 3 mps 755 mmHg 96%
    03:00 +25°C° 0.7 mm 3 mps 755 mmHg 96%
    04:00 +25°C° 1.5 mm 3 mps 755 mmHg 96%
    05:00 +25°C° 1.5 mm 2 mps 756 mmHg 96%
    06:00 +25°C° 1.5 mm 2 mps 756 mmHg 96%
    07:00 +25°C° 2 mm 2 mps 756 mmHg 96%
    08:00 +26°C° 2 mm 2 mps 756 mmHg 95%
    09:00 +26°C° 2 mm 2 mps 756 mmHg 95%
    10:00 +26°C° 1.6 mm 2 mps 756 mmHg 95%
    11:00 +26°C° 1.6 mm 2 mps 756 mmHg 96%
    12:00 +26°C° 1.6 mm 2 mps 756 mmHg 96%
    13:00 +27°C° 1.1 mm 2 mps 756 mmHg 95%
    14:00 +27°C° 1.1 mm 2 mps 755 mmHg 93%
    15:00 +28°C° 1.1 mm 2 mps 755 mmHg 91%
    16:00 +28°C° 1 mm 2 mps 755 mmHg 92%
    17:00 +28°C° 1 mm 2 mps 755 mmHg 93%
    18:00 +28°C° 1 mm 2 mps 755 mmHg 94%
    19:00 +27°C° 2 mm 2 mps 755 mmHg 95%
    20:00 +27°C° 2 mm 2 mps 755 mmHg 96%
    21:00 +26°C° 2 mm 2 mps 756 mmHg 96%
    22:00 +26°C° 0.7 mm 2 mps 756 mmHg 96%
    23:00 +26°C° 0.7 mm 2 mps 756 mmHg 96%
    Show more

    XHprof extension not loaded